User: anonymous   Login
Location: Unspecified
(0.0000°N, 0.0000°E)
Time: 03:24:50
(UTC+00:00)
Language:

USA 254 - Orbit

View from above orbital plane
View from above orbital plane
View from above satellite
View from above satellite

Ground track
Ground track

The orbit data is extracted from the following two-line orbital elements,

1 40100U 14043B   17067.32902375 0.00000000  00000-0  00000-0 0    02
2 40100   0.2357  96.3724 0002890 206.6051 153.3948  1.00445582    06
Epoch (UTC): 08 March 2017 07:53:47
Eccentricity: 0.0002890
inclination: 0.2357°
perigee height: 35725 km
apogee height: 35750 km
right ascension of ascending node: 96.3724°
argument of perigee: 206.6051°
revolutions per day: 1.00445582
mean anomaly at epoch: 153.3948°
orbit number at epoch: 0

The dashed part of the orbit path shows where the satellite is in the earth's shadow,  

DLR